Weather History for KMLE - October, 2013

Change the Weather History Date:

Friday, October 4, 2013

  Actual Average (KOMA) Record (KOMA)
Temperature  
Mean Temperature 68 °F 58 °F  
Max Temperature 83 °F 70 °F 92 °F (2005)
Min Temperature 52 °F 46 °F 28 °F (1935)
Degree Days  
Heating Degree Days 0 8  
Month to date heating degree days 31  
Since 1 July heating degree days 134  
Cooling Degree Days 3 1  
Month to date cooling degree days 4  
Year to date cooling degree days 1101  
Growing Degree Days 18 (Base 50)    
Moisture  
Dew Point 60 °F    
Average Humidity 77    
Maximum Humidity 93    
Minimum Humidity 46    
Precipitation  
Precipitation 0.55 in 0.08 in 1.12 in (1954)
Month to date precipitation 0.33  
Year to date precipitation 26.12  
Snow  
Snow 0.00 in 0.00 in - ()
Month to date snowfall 0.0  
Since 1 July snowfall 0.0  
Snow Depth -    
Sea Level Pressure  
Sea Level Pressure 29.75 in    
Wind  
Wind Speed 9 mph (SE)    
Max Wind Speed 16 mph    
Max Gust Speed 31 mph    
Visibility 10 miles    
Events Rain , Thunderstorm    
T = Trace of Precipitation, MM = Missing Value Source: NWS Daily Summary

Daily Weather History Graph

Daily Weather History Graph

Search for Another Location

Airport or City:

Trip Planner

Search our weather history database for the weather conditions in past years. The results will help you decide how hot, cold, wet, or windy it might be!

Date:

Astronomy

Oct. 04, 2013 Rise Set
Actual Time 7:24 AM CDT 7:00 PM CDT
Civil Twilight 6:57 AM CDT 7:28 PM CDT
Nautical Twilight 6:25 AM CDT 8:00 PM CDT
Astronomical Twilight 5:52 AM CDT 8:32 PM CDT
Moon 7:01 AM CDT (10/4) 6:43 PM CDT (10/4)
Length of Visible Light 12h 31m
Length of Day
11h 36m
Waning Crescent, 0% of the Moon is Illuminated
Oct 4
Waning Crescent
Oct 4
New
Oct 11
First Quarter
Oct 18
Full
Oct 26
Last Quarter

Hourly Weather History & Observations

Time (CDT) Temp. Heat Index Dew Point Humidity Pressure Visibility Wind Dir Wind Speed Gust Speed Precip Events Conditions
12:15 AM 63.5 °F - 59.4 °F 86% 29.76 in 10.0 mi SSE 10.4 mph - 0.02 in Rain , Thunderstorm Thunderstorms and Rain
12:35 AM 63.0 °F - 59.0 °F 87% 29.74 in 10.0 mi ESE 4.6 mph - 0.03 in Rain Rain
12:55 AM 63.1 °F - 59.0 °F 86% 29.73 in 10.0 mi SSE 8.1 mph - 0.05 in Rain Light Rain
1:15 AM 63.0 °F - 59.0 °F 87% 29.72 in 10.0 mi SE 12.7 mph - N/A   Clear
1:35 AM 62.6 °F - 59.4 °F 89% 29.76 in 10.0 mi WNW 11.5 mph - N/A Thunderstorm Mostly Cloudy
1:55 AM 63.7 °F - 59.5 °F 86% 29.79 in 10.0 mi NW 8.1 mph - N/A Rain , Thunderstorm Light Thunderstorms and Rain
2:15 AM 64.6 °F - 62.2 °F 92% 29.82 in 5.0 mi NNW 6.9 mph - 0.08 in Rain , Thunderstorm Heavy Thunderstorms and Rain
2:35 AM 64.9 °F - 62.6 °F 92% 29.82 in 7.0 mi NNE 4.6 mph - 0.13 in Rain , Thunderstorm Light Thunderstorms and Rain
2:55 AM 64.8 °F - 62.6 °F 93% 29.79 in 7.0 mi ENE 8.1 mph 16.1 mph 0.19 in Rain , Thunderstorm Light Thunderstorms and Rain
3:15 AM 64.8 °F - 62.6 °F 93% 29.77 in 10.0 mi East 5.8 mph - 0.01 in Rain , Thunderstorm Light Thunderstorms and Rain
3:35 AM 65.1 °F - 61.9 °F 89% 29.77 in 10.0 mi ENE 8.1 mph 16.1 mph 0.01 in   Overcast
3:55 AM 64.9 °F - 61.2 °F 88% 29.77 in 10.0 mi East 4.6 mph - 0.01 in Rain Light Rain
4:15 AM 64.8 °F - 60.8 °F 87% 29.76 in 10.0 mi East 8.1 mph - 0.02 in Rain , Thunderstorm Thunderstorms and Rain
4:35 AM 63.9 °F - 61.2 °F 91% 29.80 in 5.0 mi NNE 3.5 mph - 0.16 in Rain , Thunderstorm Thunderstorms and Rain
4:55 AM 63.5 °F - 60.6 °F 90% 29.80 in 5.0 mi NNE 4.6 mph - 0.23 in Rain , Thunderstorm Rain
5:15 AM 63.1 °F - 60.8 °F 92% 29.80 in 10.0 mi NE 8.1 mph 17.3 mph 0.01 in Rain Rain
5:35 AM 63.0 °F - 60.8 °F 93% 29.81 in 10.0 mi East 4.6 mph - 0.02 in Rain Light Rain
5:55 AM 63.1 °F - 60.8 °F 92% 29.81 in 10.0 mi ESE 4.6 mph - 0.03 in Rain Light Rain
6:15 AM 62.8 °F - 60.6 °F 93% 29.81 in 10.0 mi ESE 8.1 mph - N/A Rain Rain
6:35 AM 62.8 °F - 59.9 °F 90% 29.81 in 10.0 mi ESE 5.8 mph - 0.02 in Rain Light Rain
6:55 AM 62.8 °F - 59.9 °F 90% 29.81 in 10.0 mi ESE 9.2 mph - 0.03 in Rain Rain
7:35 AM 63.1 °F - 59.9 °F 89% 29.79 in 10.0 mi ESE 9.2 mph - 0.01 in Rain Light Rain
7:55 AM 63.5 °F - 59.9 °F 88% 29.78 in 10.0 mi East 9.2 mph 16.1 mph 0.01 in   Overcast
8:15 AM 63.9 °F - 59.7 °F 86% 29.78 in 10.0 mi East 10.4 mph - N/A   Mostly Cloudy
8:35 AM 63.9 °F - 59.4 °F 85% 29.78 in 10.0 mi East 9.2 mph 17.3 mph N/A   Overcast
8:55 AM 64.4 °F - 59.4 °F 84% 29.77 in 10.0 mi East 11.5 mph 20.7 mph N/A   Overcast
9:15 AM 64.4 °F - 59.4 °F 84% 29.76 in 10.0 mi East 8.1 mph 17.3 mph N/A Rain Light Rain
9:35 AM 64.4 °F - 59.4 °F 84% 29.77 in 10.0 mi ESE 6.9 mph - N/A   Overcast
9:55 AM 64.6 °F - 60.1 °F 85% 29.77 in 10.0 mi SE 8.1 mph - N/A Rain Rain
10:15 AM 65.1 °F - 60.6 °F 85% 29.77 in 10.0 mi ESE 4.6 mph - N/A   Overcast
10:35 AM 65.5 °F - 61.3 °F 86% 29.76 in 10.0 mi ESE 6.9 mph - N/A   Overcast
10:55 AM 66.6 °F - 61.9 °F 85% 29.76 in 10.0 mi ESE 9.2 mph 16.1 mph N/A   Overcast
11:15 AM 66.6 °F - 62.1 °F 85% 29.76 in 10.0 mi ESE 6.9 mph - N/A   Overcast
11:35 AM 67.3 °F - 62.6 °F 85% 29.75 in 10.0 mi ESE 10.4 mph 17.3 mph N/A   Overcast
11:55 AM 69.1 °F - 63.7 °F 83% 29.74 in 10.0 mi ESE 10.4 mph 18.4 mph N/A   Overcast
12:15 PM 69.8 °F - 64.4 °F 83% 29.74 in 10.0 mi SE 15.0 mph 19.6 mph N/A   Overcast
12:35 PM 69.8 °F - 64.8 °F 84% 29.74 in 10.0 mi ESE 10.4 mph 17.3 mph N/A   Overcast
12:55 PM 70.9 °F - 65.7 °F 83% 29.73 in 10.0 mi ESE 10.4 mph - N/A   Overcast
1:15 PM 72.0 °F - 66.7 °F 84% 29.72 in 10.0 mi ESE 10.4 mph - N/A   Overcast
1:35 PM 73.6 °F - 67.6 °F 82% 29.70 in 10.0 mi ESE 11.5 mph 18.4 mph N/A   Overcast
1:55 PM 74.3 °F - 67.8 °F 80% 29.69 in 10.0 mi SE 12.7 mph 18.4 mph N/A   Overcast
2:15 PM 74.5 °F - 68.2 °F 81% 29.68 in 10.0 mi ESE 9.2 mph 19.6 mph N/A   Overcast
2:35 PM 75.4 °F - 68.7 °F 80% 29.67 in 10.0 mi SE 9.2 mph 18.4 mph N/A   Overcast
2:55 PM 76.1 °F - 69.3 °F 79% 29.67 in 10.0 mi ESE 9.2 mph - N/A   Overcast
3:15 PM 76.3 °F - 69.8 °F 80% 29.67 in 10.0 mi ESE 10.4 mph 18.4 mph N/A   Mostly Cloudy
3:35 PM 78.6 °F - 70.5 °F 76% 29.66 in 10.0 mi ESE 10.4 mph - N/A   Mostly Cloudy
3:55 PM 78.8 °F - 70.7 °F 76% 29.65 in 10.0 mi ESE 12.7 mph - N/A   Mostly Cloudy
4:15 PM 79.5 °F - 70.7 °F 74% 29.65 in 10.0 mi SE 10.4 mph - N/A   Scattered Clouds
4:35 PM 79.2 °F - 70.2 °F 74% 29.64 in 10.0 mi SE 11.5 mph 18.4 mph N/A   Mostly Cloudy
4:55 PM 81.3 °F 85.0 °F 70.3 °F 69% 29.64 in 10.0 mi SE 12.7 mph 18.4 mph N/A   Scattered Clouds
5:15 PM 81.5 °F 85.3 °F 70.3 °F 69% 29.62 in 10.0 mi SE 15.0 mph - N/A   Scattered Clouds
5:35 PM 81.1 °F 84.9 °F 70.3 °F 70% 29.63 in 10.0 mi SE 8.1 mph 16.1 mph N/A   Scattered Clouds
5:55 PM 82.6 °F 84.7 °F 66.0 °F 57% 29.63 in 10.0 mi SSE 10.4 mph - N/A   Scattered Clouds
6:15 PM 83.1 °F 85.0 °F 65.3 °F 55% 29.63 in 10.0 mi SSE 8.1 mph - N/A   Scattered Clouds
6:35 PM 82.4 °F 82.6 °F 59.5 °F 46% 29.66 in 10.0 mi SW 6.9 mph 21.9 mph N/A   Scattered Clouds
6:55 PM 77.9 °F - 57.7 °F 50% 29.68 in 10.0 mi WSW 11.5 mph 29.9 mph N/A   Scattered Clouds
7:15 PM 76.1 °F - 57.2 °F 52% 29.71 in 10.0 mi SW 8.1 mph 18.4 mph N/A   Scattered Clouds
7:35 PM 74.3 °F - 57.6 °F 56% 29.72 in 10.0 mi WSW 9.2 mph 18.4 mph N/A   Clear
7:55 PM 72.3 °F - 56.3 °F 57% 29.74 in 10.0 mi West 13.8 mph 21.9 mph N/A   Clear
8:15 PM 70.7 °F - 55.8 °F 59% 29.74 in 10.0 mi West 12.7 mph 17.3 mph N/A   Clear
8:35 PM 68.9 °F - 52.7 °F 56% 29.76 in 10.0 mi West 10.4 mph 25.3 mph N/A   Clear
8:55 PM 67.3 °F - 49.8 °F 53% 29.78 in 10.0 mi West 11.5 mph 20.7 mph N/A   Clear
9:15 PM 65.8 °F - 48.7 °F 54% 29.79 in 10.0 mi West 11.5 mph 19.6 mph N/A   Scattered Clouds
9:35 PM 64.2 °F - 48.6 °F 57% 29.81 in 10.0 mi West 13.8 mph 18.4 mph N/A   Scattered Clouds
9:55 PM 61.9 °F - 45.5 °F 55% 29.82 in 10.0 mi West 16.1 mph 31.1 mph N/A   Scattered Clouds
10:15 PM 60.1 °F - 44.6 °F 57% 29.83 in 10.0 mi West 15.0 mph 23.0 mph N/A   Scattered Clouds
10:35 PM 57.9 °F - 42.6 °F 57% 29.86 in 10.0 mi West 11.5 mph 21.9 mph N/A   Mostly Cloudy
10:55 PM 55.6 °F - 39.4 °F 55% 29.87 in 10.0 mi West 13.8 mph 26.5 mph N/A   Overcast
11:15 PM 54.5 °F - 38.7 °F 55% 29.88 in 10.0 mi WNW 10.4 mph - N/A   Overcast
11:35 PM 53.1 °F - 39.0 °F 59% 29.89 in 10.0 mi West 5.8 mph - N/A   Scattered Clouds
11:55 PM 52.2 °F - 37.0 °F 56% 29.89 in 10.0 mi West 15.0 mph 23.0 mph N/A   Scattered Clouds